This demonstration page uses our WeatherBlox Daily Observations layout. Learn more.

Left ArrowRight Arrow

40.92501, -98.34201

Hourly Observations for October 2, 2022

Temp ( °F °C ) Dew Point ( °F °C ) Humidity (%) Winds ( mph kmh ) Pressure ( in mb ) Visibility ( mi km ) Precip ( " mm )
12:53 am 00:53 Clear 62 16.7 41 5 46 46 SSE 14 22 30.14 1021 10 16 0.00 0.00
1:53 am 01:53 Clear 61 16.1 41 5 48 48 SSE 12 19 30.16 1021 10 16 0.00 0.00
2:53 am 02:53 Clear 59 15 41 5 51 51 SSE 12 19 30.16 1022 10 16 0.00 0.00
3:53 am 03:53 Clear 55 12.8 42 5.6 62 62 S 7 11 30.18 1022 10 16 0.00 0.00
4:53 am 04:53 Clear 56 13.3 42 5.6 60 60 SSW 5 7 30.21 1023 10 16 0.00 0.00
5:53 am 05:53 Clear 51 10.6 42 5.6 71 71 SSE 6 9 30.23 1024 10 16 0.00 0.00
6:53 am 06:53 Clear 49 9.4 41 5 74 74 SE 6 9 30.24 1024 10 16 0.00 0.00
7:53 am 07:53 Sunny 49 9.4 42 5.6 77 77 SSE 5 7 30.25 1024 10 16 0.00 0.00
8:53 am 08:53 Sunny 57 13.9 42 5.6 57 57 SSE 9 15 30.25 1024 10 16 0.00 0.00
9:53 am 09:53 Sunny 66 18.9 40 4.4 38 38 S 13 20 30.25 1024 10 16 0.00 0.00
10:53 am 10:53 Sunny 72 22.2 39 3.9 30 30 S 17 28 30.24 1024 10 16 0.00 0.00
11:53 am 11:53 Sunny 76 24.4 39 3.9 26 26 S 16 26 30.24 1024 10 16 0.00 0.00
12:53 pm 12:53 Sunny 80 26.7 39 3.9 23 23 SSE 12 19 30.22 1024 10 16 0.00 0.00
1:53 pm 13:53 Sunny 81 27.2 37 2.8 21 21 SSE 15 24 30.21 1023 10 16 0.00 0.00
2:53 pm 14:53 Sunny 83 28.3 34 1.1 17 17 S 17 28 30.18 1022 10 16 0.00 0.00
3:53 pm 15:53 Sunny 83 28.3 34 1.1 17 17 SSE 15 24 30.17 1022 10 16 0.00 0.00
4:53 pm 16:53 Sunny 82 27.8 33 0.6 17 17 S 16 26 30.16 1022 10 16 0.00 0.00
5:53 pm 17:53 Sunny 81 27.2 35 1.7 19 19 SSE 15 24 30.17 1022 10 16 0.00 0.00
6:53 pm 18:53 Sunny 76 24.4 36 2.2 23 23 SSE 13 20 30.17 1022 10 16 0.00 0.00
7:53 pm 19:53 Clear 71 21.7 38 3.3 30 30 SSE 9 15 30.19 1022 10 16 0.00 0.00
8:53 pm 20:53 Clear 68 20 37 2.8 32 32 SSE 13 20 30.19 1023 10 16 0.00 0.00
9:53 pm 21:53 Clear 67 19.4 39 3.9 36 36 SSE 14 22 30.19 1022 10 16 0.00 0.00
10:53 pm 22:53 Clear 65 18.3 40 4.4 40 40 SSE 14 22 30.19 1022 10 16 0.00 0.00
11:53 pm 23:53 Clear 64 17.8 39 3.9 40 40 SSE 16 26 30.19 1022 10 16 0.00 0.00

Powered by AerisWeather